Regional Weather Roundup
Issued by NWS

Home | Current Version | Previous Version | Text Only | Print | Product List | Glossary Off
Versions: 1 2 3 4 5 6 7 8 9 10 11 12 13 14 15 16 17 18 19 20 21 22 23 24 25 26 27 28 29 30 31 32 33 34 35 36 37 38 39 40 41 42 43 44 45 46 47 48 49 50

000
ASUS43 KIND 240209
RWRIN

WEATHER ROUNDUP FOR INDIANA
NATIONAL WEATHER SERVICE INDIANAPOLIS IN
1000 PM EDT THU OCT 23 2014

NOTE: "FAIR" INDICATES FEW OR NO CLOUDS BELOW 12,000 FEET WITH NO
SIGNIFICANT WEATHER AND/OR OBSTRUCTIONS TO VISIBILITY.

* - STATION DOES NOT REPORT WEATHER SUCH AS PRECIPITATION OR FOG.

+ - STATION NOT QUALITY CONTROLLED BY THE NATIONAL WEATHER SERVICE.
    USE DATA WITH CAUTION...ESPECIALLY DEWPOINT AND RELATIVE
    HUMIDITY OBSERVATIONS.

INZ001>003-010>013-019-020-240300-
NORTHWEST INDIANA

CITY           SKY/WX    TMP DP  RH WIND       PRES   REMARKS
KNOX *+        CLOUDY    43  39  85 CALM      30.11R
LA PORTE +     CLOUDY    46  42  85 CALM      30.11S
MICHIGAN CITY+ MOCLDY    46  37  71 CALM      30.10S
MONTICELLO +   CLOUDY    43  41  93 CALM      30.10S
RENSSELAER +   MOCLDY    48  43  81 S5        30.11S
VALPARAISO     MOCLDY    49  40  71 S3        30.10S

$$

LMZ046-743>745-240300-
SOUTHERN LAKE MICHIGAN

STATION/POSITION TIME  TEMP WIND        PRES
                       AIR  DIR/SP/G
                 (UTC) (F)  (DEG/KT/KT) (MB)
MICHIGAN CITY    0200   53  150/  7/ 11   N/A

$$

INZ004-005-014>016-021>024-240300-
NORTH CENTRAL INDIANA

CITY           SKY/WX    TMP DP  RH WIND       PRES   REMARKS
GOSHEN         CLOUDY    45  40  82 SE3       30.11S
LOGANSPORT +   CLOUDY    43  37  81 SE3       30.12S
PERU/GRISSOM   MOCLDY    46  44  93 S6        30.11S
ROCHESTER +    CLOUDY    46  41  81 CALM      30.11S
SOUTH BEND     MOCLDY    48  40  73 CALM      30.12R
WARSAW +       CLOUDY    43  41  93 CALM      30.11F

$$

INZ006>009-017-018-025>027-240300-
NORTHEAST INDIANA

CITY           SKY/WX    TMP DP  RH WIND       PRES   REMARKS
ANGOLA *+      CLEAR     43  39  87 CALM      30.11S
AUBURN +       MOCLDY    43  37  81 CALM      30.12S
FORT WAYNE     CLOUDY    44  39  82 CALM      30.12F
HUNTINGTON +   CLOUDY    46  41  82 CALM      30.11S HAZE

$$

INZ028-029-035-036-043>045-051>053-240300-
WEST CENTRAL INDIANA

CITY           SKY/WX    TMP DP  RH WIND       PRES   REMARKS
GREENCASTLE +  CLOUDY    45  41  87 CALM      30.13S
LAFAYETTE      CLOUDY    46  42  86 CALM      30.11S
TERRE HAUTE    CLOUDY    47  43  86 CALM      30.13S

$$

INZ030>032-037>040-046>048-054>057-064-065-240300-
CENTRAL INDIANA

CITY           SKY/WX    TMP DP  RH WIND       PRES   REMARKS
CP ATTERBURY + CLOUDY    45  41  87 CALM      30.13F
COLUMBUS       CLEAR     46  43  87 CALM      30.13F
FRANKFORT +    CLOUDY    48  42  80 CALM      30.13S
INDIANAPOLIS   CLOUDY    50  40  68 S6        30.11S
-EAGLE CREEK   CLOUDY    49  42  77 CALM      30.12S
KOKOMO *+      CLOUDY    45  39  81 S3        30.12S
MARION +       CLOUDY    45  38  76 CALM      30.12S
MT COMFORT *+  CLOUDY    45  41  87 CALM      30.12F
SHELBYVILLE    CLOUDY    45  40  82 CALM      30.12F
ZIONSVILLE +   CLOUDY    46  39  76 CALM      30.13R

$$

INZ033-034-041-042-049-050-058-059-240300-
EAST CENTRAL INDIANA

CITY           SKY/WX    TMP DP  RH WIND       PRES   REMARKS
MUNCIE         CLOUDY    46  42  86 CALM      30.12S

$$

INZ060-061-067>069-081>083-085>088-240300-
SOUTHWEST INDIANA

CITY           SKY/WX    TMP DP  RH WIND       PRES   REMARKS
EVANSVILLE     CLOUDY    52  45  77 CALM      30.15R
HUNTINGBURG *+ CLOUDY    48  43  81 S5        30.13F
WASHINGTON +   CLOUDY    50  45  85 CALM      30.13R

$$

INZ062-063-066-070>080-084-089>092-240300-
SOUTH CENTRAL AND SOUTHEAST INDIANA

CITY           SKY/WX    TMP DP  RH WIND       PRES   REMARKS
BEDFORD +      CLOUDY    50  39  66 CALM      30.12F
BLOOMINGTON    CLOUDY    47  44  90 CALM      30.13R

$$




USA.gov is the U.S. government's official web portal to all federal, state and local government web resources and services.